Regional Weather Roundup
Issued by NWS Goodland, KS

Home | Current Version | Previous Version | Graphics & Text | Print | Product List | Glossary On
Versions: 1 2 3 4 5 6 7 8 9 10 11 12 13 14 15 16 17 18 19 20 21 22 23 24 25 26 27 28 29 30 31 32 33 34 35 36 37 38 39 40 41 42 43 44 45 46 47 48 49 50
000
ASUS43 KGLD 280759
RWRGLD

GOODLAND FORECAST AREA HOURLY WEATHER ROUNDUP
NATIONAL WEATHER SERVICE GOODLAND KS
200 AM MDT SAT MAR 28 2015

...OFFICIAL OBSERVATIONS...

CITY           SKY/WX    TMP DP  RH WIND       PRES   REMARKS
GOODLAND KS    CLEAR     45  33  63 W8        30.01F
HILL CITY KS   PTCLDY    36  31  82 N6        29.96F
IMPERIAL NEB     N/A     42  30  62 NW7       29.99S
MCCOOK NEB     MOCLDY    39  32  76 NW5       29.97S
AKRON CO       CLEAR     45  30  55 W8        30.05S
BURLINGTON CO  CLEAR     42  33  70 W9        30.03F
LIMON CO       CLEAR     39  32  76 NW6       30.10F
$$

...UNOFFICIAL OBSERVATIONS...

CITY           SKY/WX    TMP DP  RH WIND       PRES   REMARKS
COLBY KS       CLEAR     45  37  76 W9        29.98F
GOVE KS          N/A     43  32  65 MISG        N/A
LENORA KS        N/A     38  32  79 MISG        N/A
NORTON KS      CLEAR     37  27  65 CALM      29.96S
SHARON SPRINGS   N/A     46  35  65 W7          N/A
TRIBUNE KS     CLEAR     52  39  62 W13       30.04S
KIT CARSON CO    N/A     43  33  69 MISG        N/A
YUMA CO          N/A     39  30  71 W6          N/A
$$



USA.gov is the U.S. government's official web portal to all federal, state and local government web resources and services.